| time (UTC) | temp F | wind direction | speed MPH | gust MPH | rain 1hr in | rain 24hr in | rain mn in | humidity % | barometer mb |
| 20260906224505 | 73 | 216 | 0.0 | 4.0 | 0.00 | 0.00 | 0.00 | 66 | 1015.4 |
| 20260906223010 | 74 | 267 | 0.0 | 2.0 | 0.00 | 0.00 | 0.00 | 64 | 1015.4 |
| 20260906221503 | 75 | 73 | 0.0 | 2.0 | 0.00 | 0.00 | 0.00 | 64 | 1015.3 |
| 20260906220004 | 76 | 232 | 1.0 | 4.0 | 0.00 | 0.00 | 0.00 | 59 | 1015.3 |
| 20260906214512 | 75 | 38 | 0.0 | 3.0 | 0.00 | 0.00 | 0.00 | 64 | 1015.1 |
| 20260906213005 | 76 | 260 | 0.0 | 2.0 | 0.00 | 0.00 | 0.00 | 61 | 1015.0 |
| 20260906211509 | 76 | 171 | 0.0 | 4.0 | 0.00 | 0.00 | 0.00 | 58 | 1015.1 |
| 20260906210008 | 76 | 148 | 0.0 | 3.0 | 0.00 | 0.00 | 0.00 | 59 | 1015.1 |
| 20260906204508 | 76 | 30 | 0.0 | 2.0 | 0.00 | 0.00 | 0.00 | 60 | 1015.0 |
| 20260906203005 | 77 | 259 | 0.0 | 4.0 | 0.00 | 0.00 | 0.00 | 58 | 1014.9 |
| 20260906201504 | 76 | 11 | 0.0 | 2.0 | 0.00 | 0.00 | 0.00 | 58 | 1015.1 |
| 20260906200010 | 75 | 36 | 0.0 | 3.0 | 0.00 | 0.00 | 0.00 | 60 | 1015.1 |
| 20260906194512 | 76 | 55 | 0.0 | 4.0 | 0.00 | 0.00 | 0.00 | 60 | 1015.2 |
| 20260906193008 | 77 | 8 | 0.0 | 6.0 | 0.00 | 0.00 | 0.00 | 59 | 1015.2 |
| 20260906191512 | 77 | 296 | 0.0 | 4.0 | 0.00 | 0.00 | 0.00 | 57 | 1015.1 |
| 20260906190013 | 77 | 125 | 0.0 | 3.0 | 0.00 | 0.00 | 0.00 | 57 | 1015.1 |
| 20260906184509 | 76 | 5 | 0.0 | 3.0 | 0.00 | 0.00 | 0.00 | 65 | 1015.3 |
| 20260906183018 | 76 | 1 | 0.0 | 5.0 | 0.00 | 0.00 | 0.00 | 62 | 1015.4 |
| 20260906181504 | 76 | 48 | 1.0 | 4.0 | 0.00 | 0.00 | 0.00 | 61 | 1015.3 |
| 20260906180019 | 75 | 59 | 0.0 | 4.0 | 0.00 | 0.00 | 0.00 | 66 | 1015.7 |
| 20260906174525 | 75 | 232 | 0.0 | 2.0 | 0.00 | 0.00 | 0.00 | 67 | 1015.6 |
| 20260906173021 | 75 | 343 | 0.0 | 3.0 | 0.00 | 0.00 | 0.00 | 66 | 1015.7 |
| 20260906171516 | 75 | 280 | 1.0 | 3.0 | 0.00 | 0.00 | 0.00 | 62 | 1015.6 |
| 20260906170016 | 74 | 108 | 0.0 | 3.0 | 0.00 | 0.00 | 0.00 | 69 | 1015.7 |
| 20260906164523 | 76 | 289 | 1.0 | 4.0 | 0.00 | 0.00 | 0.00 | 61 | 1015.6 |
| 20260906163018 | 75 | 99 | 0.0 | 5.0 | 0.00 | 0.00 | 0.00 | 68 | 1015.8 |
| 20260906161506 | 75 | 105 | 0.0 | 5.0 | 0.00 | 0.00 | 0.00 | 66 | 1015.8 |
| 20260906160019 | 75 | 103 | 1.0 | 6.0 | 0.00 | 0.00 | 0.00 | 66 | 1015.8 |
| 20260906154523 | 74 | 298 | 0.0 | 5.0 | 0.00 | 0.00 | 0.00 | 71 | 1015.8 |
| 20260906153018 | 73 | 9 | 1.0 | 5.0 | 0.00 | 0.00 | 0.00 | 71 | 1015.9 |
| 20260906151523 | 72 | 1 | 0.0 | 6.0 | 0.00 | 0.00 | 0.00 | 71 | 1015.9 |
| 20260906150040 | 73 | 9 | 0.0 | 4.0 | 0.00 | 0.00 | 0.00 | 70 | 1015.8 |
| 20260906144518 | 72 | 73 | 0.0 | 3.0 | 0.00 | 0.00 | 0.00 | 71 | 1015.6 |
| 20260906143022 | 72 | 266 | 2.0 | 4.0 | 0.00 | 0.00 | 0.00 | 74 | 1015.7 |
| 20260906141535 | 71 | 71 | 1.0 | 4.0 | 0.00 | 0.00 | 0.00 | 76 | 1015.6 |
| 20260906140025 | 70 | 360 | 0.0 | 3.0 | 0.00 | 0.00 | 0.00 | 78 | 1015.5 |
| 20260906134524 | 69 | 66 | 1.0 | 5.0 | 0.00 | 0.00 | 0.00 | 77 | 1015.6 |
| 20260906133028 | 69 | 15 | 1.0 | 4.0 | 0.00 | 0.00 | 0.00 | 79 | 1015.4 |
| 20260906131529 | 68 | 187 | 0.0 | 5.0 | 0.00 | 0.00 | 0.00 | 79 | 1015.4 |
| 20260906130035 | 67 | 356 | 0.0 | 3.0 | 0.00 | 0.00 | 0.00 | 80 | 1015.3 |
| 20260906124518 | 67 | 20 | 0.0 | 5.0 | 0.00 | 0.00 | 0.00 | 81 | 1015.3 |
| 20260906123015 | 66 | 63 | 0.0 | 3.0 | 0.00 | 0.00 | 0.00 | 84 | 1015.2 |
| 20260906121527 | 65 | 200 | 0.0 | 2.0 | 0.00 | 0.00 | 0.00 | 86 | 1015.2 |
| 20260906120030 | 64 | 270 | 0.0 | 4.0 | 0.00 | 0.00 | 0.00 | 87 | 1014.9 |
| 20260906114537 | 63 | 174 | 0.0 | 3.0 | 0.00 | 0.00 | 0.00 | 89 | 1014.8 |
| 20260906113030 | 62 | 240 | 0.0 | 2.0 | 0.00 | 0.00 | 0.00 | 90 | 1014.5 |
| 20260906111527 | 62 | 240 | 0.0 | 2.0 | 0.00 | 0.00 | 0.00 | 91 | 1014.4 |
| 20260906110038 | 61 | 240 | 0.0 | 2.0 | 0.00 | 0.00 | 0.00 | 91 | 1014.3 |
| 20260906104527 | 61 | 240 | 0.0 | 0.0 | 0.00 | 0.00 | 0.00 | 91 | 1014.0 |
| 20260906103024 | 61 | 240 | 0.0 | 2.0 | 0.00 | 0.00 | 0.00 | 91 | 1013.9 |
| 20260906101518 | 62 | 240 | 0.0 | 1.0 | 0.00 | 0.00 | 0.00 | 90 | 1013.8 |
| 20260906100016 | 62 | 240 | 0.0 | 0.0 | 0.00 | 0.00 | 0.00 | 90 | 1013.5 |
| 20260906094524 | 62 | 240 | 0.0 | 1.0 | 0.00 | 0.00 | 0.00 | 89 | 1013.4 |
| 20260906093010 | 62 | 240 | 0.0 | 0.0 | 0.00 | 0.00 | 0.00 | 89 | 1013.1 |
| 20260906091507 | 62 | 240 | 0.0 | 2.0 | 0.00 | 0.00 | 0.00 | 89 | 1013.0 |
| 20260906090032 | 62 | 240 | 0.0 | 2.0 | 0.00 | 0.00 | 0.00 | 89 | 1012.7 |
| 20260906084534 | 62 | 240 | 0.0 | 2.0 | 0.00 | 0.00 | 0.00 | 89 | 1012.7 |
| 20260906083023 | 62 | 264 | 0.0 | 0.0 | 0.00 | 0.00 | 0.00 | 89 | 1012.4 |
| 20260906081539 | 62 | 265 | 0.0 | 2.0 | 0.00 | 0.00 | 0.00 | 89 | 1012.4 |
| 20260906080018 | 63 | 264 | 0.0 | 0.0 | 0.00 | 0.00 | 0.00 | 88 | 1012.4 |
| 20260906074513 | 63 | 264 | 0.0 | 0.0 | 0.00 | 0.00 | 0.00 | 88 | 1012.4 |
| 20260906073012 | 63 | 264 | 0.0 | 0.0 | 0.00 | 0.00 | 0.00 | 87 | 1012.3 |
| 20260906071531 | 63 | 265 | 0.0 | 0.0 | 0.00 | 0.00 | 0.00 | 87 | 1012.5 |
| 20260906070032 | 63 | 265 | 0.0 | 0.0 | 0.00 | 0.00 | 0.00 | 87 | 1012.3 |
| 20260906064530 | 63 | 265 | 0.0 | 0.0 | 0.00 | 0.00 | 0.00 | 87 | 1012.4 |
| 20260906063031 | 63 | 265 | 0.0 | 0.0 | 0.00 | 0.00 | 0.00 | 87 | 1012.5 |
| 20260906061534 | 64 | 264 | 0.0 | 0.0 | 0.00 | 0.00 | 0.00 | 86 | 1012.5 |
| 20260906060023 | 64 | 264 | 0.0 | 0.0 | 0.00 | 0.00 | 0.00 | 86 | 1012.7 |
| 20260906054520 | 64 | 264 | 0.0 | 2.0 | 0.00 | 0.00 | 0.00 | 87 | 1012.7 |
| 20260906053017 | 64 | 264 | 0.0 | 0.0 | 0.00 | 0.00 | 0.00 | 88 | 1012.8 |
| 20260906051532 | 64 | 264 | 0.0 | 0.0 | 0.00 | 0.00 | 0.00 | 88 | 1012.9 |
| 20260906050033 | 64 | 264 | 0.0 | 0.0 | 0.00 | 0.00 | 0.00 | 88 | 1012.9 |
| 20260906044535 | 63 | 264 | 0.0 | 0.0 | 0.00 | 0.00 | 0.00 | 88 | 1012.9 |
| 20260906043029 | 64 | 264 | 0.0 | 0.0 | 0.00 | 0.00 | 0.00 | 88 | 1012.9 |
| 20260906041528 | 64 | 264 | 0.0 | 0.0 | 0.00 | 0.00 | 0.00 | 87 | 1012.9 |
| 20260906040033 | 65 | 265 | 0.0 | 0.0 | 0.00 | 0.01 | 0.00 | 87 | 1012.9 |
| 20260906034524 | 65 | 264 | 0.0 | 0.0 | 0.00 | 0.02 | 0.01 | 86 | 1012.8 |
| 20260906033019 | 65 | 264 | 0.0 | 0.0 | 0.00 | 0.12 | 0.01 | 85 | 1012.9 |
| 20260906031531 | 66 | 265 | 0.0 | 0.0 | 0.00 | 0.12 | 0.01 | 83 | 1012.8 |
| 20260906030011 | 66 | 265 | 0.0 | 0.0 | 0.00 | 0.12 | 0.01 | 83 | 1012.7 |
| 20260906024508 | 66 | 265 | 0.0 | 0.0 | 0.00 | 0.12 | 0.01 | 83 | 1012.7 |
| 20260906023005 | 66 | 264 | 0.0 | 0.0 | 0.00 | 0.12 | 0.01 | 82 | 1012.7 |
| 20260906021505 | 67 | 265 | 0.0 | 0.0 | 0.00 | 0.12 | 0.01 | 81 | 1012.6 |
| 20260906020031 | 67 | 265 | 0.0 | 0.0 | 0.00 | 0.12 | 0.01 | 81 | 1012.5 |
| 20260906014529 | 66 | 265 | 0.0 | 0.0 | 0.00 | 0.12 | 0.01 | 82 | 1012.4 |
| 20260906013036 | 66 | 265 | 0.0 | 0.0 | 0.00 | 0.12 | 0.01 | 82 | 1012.3 |
| 20260906011516 | 67 | 264 | 0.0 | 0.0 | 0.00 | 0.12 | 0.01 | 81 | 1012.1 |
| 20260906010013 | 67 | 264 | 0.0 | 0.0 | 0.00 | 0.12 | 0.01 | 79 | 1012.0 |
| 20260906004512 | 68 | 264 | 0.0 | 0.0 | 0.00 | 0.12 | 0.01 | 78 | 1011.9 |
| 20260906003008 | 68 | 264 | 0.0 | 0.0 | 0.00 | 0.12 | 0.01 | 77 | 1011.8 |
| 20260906001533 | 69 | 265 | 0.0 | 0.0 | 0.00 | 0.12 | 0.01 | 77 | 1011.6 |
| 20260906000030 | 70 | 265 | 0.0 | 0.0 | 0.00 | 0.12 | 0.01 | 76 | 1011.5 |
| 20260905234524 | 71 | 265 | 0.0 | 0.0 | 0.00 | 0.12 | 0.01 | 72 | 1011.3 |
| 20260905233030 | 72 | 265 | 0.0 | 0.0 | 0.00 | 0.12 | 0.01 | 67 | 1011.1 |
| 20260905231518 | 73 | 264 | 0.0 | 0.0 | 0.00 | 0.12 | 0.01 | 67 | 1011.1 |
| 20260905230018 | 74 | 248 | 0.0 | 2.0 | 0.00 | 0.12 | 0.01 | 63 | 1011.0 |